TAM429 SKBO-GOBD

Flight info

Callsign TAM429
Flight time 7h 42m
Altitude 35000
Route MAVDA UW20 AUC DCT MIQ/N0481F370 UN669 ELJEZ/M082F370 DCT 2150N DCT 2340N/M082F390 DCT 22N036W DCT ERNEK/N0473F390 DCT EVKAS DCT BVT DCT MOGSA DCT PIVSA
Aircraft B77W/H-SDE1E2E3FGHIJ2J3J4J5M1RWXY/LB1D1

Departure

Time 2026-04-25 13:09
Airport El Dorado International Airport (SKBO)

Arrival

Time 2026-04-25 20:51
Airport Blaise Diagne International Airport (GOBD)
Time Latitude Longitude Altitude Speed Heading
2026-04-25 11:50 4.69940 -74.14536 8371 ft 0 kts 186°
2026-04-25 12:34 4.69951 -74.14535 8371 ft 4 kts 191°
2026-04-25 12:35 4.69982 -74.14521 8371 ft 4 kts 235°
2026-04-25 12:35 4.69987 -74.14501 8371 ft 4 kts 304°
2026-04-25 12:35 4.69972 -74.14481 8371 ft 4 kts 307°
2026-04-25 12:35 4.69956 -74.14459 8371 ft 4 kts 307°
2026-04-25 12:36 4.69948 -74.14450 8371 ft 0 kts 307°
2026-04-25 12:42 4.69949 -74.14450 8370 ft 1 kts 307°
2026-04-25 12:42 4.69964 -74.14470 8371 ft 6 kts 307°
2026-04-25 12:43 4.70001 -74.14519 8371 ft 11 kts 307°
2026-04-25 12:43 4.70034 -74.14585 8371 ft 11 kts 275°
2026-04-25 12:43 4.70116 -74.14647 8371 ft 9 kts 16°
2026-04-25 12:44 4.70158 -74.14673 8371 ft 7 kts 282°
2026-04-25 12:44 4.70141 -74.14713 8371 ft 7 kts 230°
2026-04-25 12:44 4.70070 -74.14773 8371 ft 7 kts 217°
2026-04-25 12:45 4.70011 -74.14817 8371 ft 14 kts 216°
2026-04-25 12:45 4.69934 -74.14874 8371 ft 14 kts 217°
2026-04-25 12:45 4.69861 -74.14981 8371 ft 8 kts 303°
2026-04-25 12:46 4.69908 -74.15047 8371 ft 17 kts 307°
2026-04-25 12:46 4.69985 -74.15149 8371 ft 19 kts 307°
2026-04-25 12:46 4.70063 -74.15252 8371 ft 19 kts 307°
2026-04-25 12:46 4.70142 -74.15356 8371 ft 19 kts 307°
2026-04-25 12:47 4.70220 -74.15459 8370 ft 19 kts 307°
2026-04-25 12:47 4.70299 -74.15563 8371 ft 19 kts 307°
2026-04-25 12:47 4.70377 -74.15666 8370 ft 19 kts 307°
2026-04-25 12:47 4.70456 -74.15769 8371 ft 19 kts 307°
2026-04-25 12:48 4.70534 -74.15873 8371 ft 19 kts 307°
2026-04-25 12:48 4.70612 -74.15975 8371 ft 19 kts 307°
2026-04-25 12:48 4.70690 -74.16079 8371 ft 19 kts 307°
2026-04-25 12:48 4.70768 -74.16182 8371 ft 19 kts 307°
2026-04-25 12:49 4.70847 -74.16286 8371 ft 19 kts 307°
2026-04-25 12:49 4.70922 -74.16386 8371 ft 11 kts 307°
2026-04-25 12:49 4.70933 -74.16400 8371 ft 2 kts 307°
2026-04-25 12:49 4.70937 -74.16405 8371 ft 0 kts 307°
2026-04-25 12:50 4.70953 -74.16426 8371 ft 9 kts 307°
2026-04-25 12:51 4.70984 -74.16467 8371 ft 3 kts 307°
2026-04-25 12:51 4.70985 -74.16468 8371 ft 0 kts 307°
2026-04-25 12:52 4.70986 -74.16469 8371 ft 2 kts 307°
2026-04-25 12:53 4.71007 -74.16497 8371 ft 6 kts 307°
2026-04-25 12:53 4.71029 -74.16526 8371 ft 5 kts 307°
2026-04-25 12:53 4.71046 -74.16548 8371 ft 3 kts 307°
2026-04-25 12:53 4.71059 -74.16565 8371 ft 3 kts 307°
2026-04-25 12:54 4.71072 -74.16583 8371 ft 3 kts 307°
2026-04-25 12:54 4.71085 -74.16600 8371 ft 3 kts 307°
2026-04-25 12:54 4.71098 -74.16617 8371 ft 3 kts 307°
2026-04-25 12:54 4.71099 -74.16618 8371 ft 0 kts 307°
2026-04-25 12:56 4.71107 -74.16629 8371 ft 4 kts 307°
2026-04-25 12:57 4.71124 -74.16651 8371 ft 4 kts 307°
2026-04-25 12:57 4.71136 -74.16668 8371 ft 0 kts 307°
2026-04-25 12:58 4.71144 -74.16678 8371 ft 8 kts 306°
2026-04-25 12:58 4.71168 -74.16712 8371 ft 0 kts 306°
2026-04-25 13:00 4.71197 -74.16751 8371 ft 8 kts 306°
2026-04-25 13:00 4.71204 -74.16790 8371 ft 0 kts 236°
2026-04-25 13:03 4.71202 -74.16793 8371 ft 3 kts 233°
2026-04-25 13:03 4.71168 -74.16819 8370 ft 7 kts 216°
2026-04-25 13:04 4.71160 -74.16825 8370 ft 0 kts 216°
2026-04-25 13:05 4.71147 -74.16835 8370 ft 7 kts 216°
2026-04-25 13:05 4.71088 -74.16878 8368 ft 11 kts 216°
2026-04-25 13:06 4.71048 -74.16900 8368 ft 5 kts 183°
2026-04-25 13:06 4.71030 -74.16887 8368 ft 0 kts 130°
2026-04-25 13:08 4.71022 -74.16877 8368 ft 8 kts 129°
2026-04-25 13:08 4.70842 -74.16641 8369 ft 82 kts 127°
2026-04-25 13:08 4.70344 -74.15982 8370 ft 154 kts 127°
2026-04-25 13:09 4.69560 -74.14947 8410 ft 213 kts 126°
2026-04-25 13:09 4.68674 -74.13735 9284 ft 219 kts 128°
2026-04-25 13:09 4.67433 -74.12819 9946 ft 231 kts 165°
2026-04-25 13:09 4.65820 -74.12892 10634 ft 241 kts 204°
2026-04-25 13:10 4.64554 -74.13965 11207 ft 243 kts 240°
2026-04-25 13:10 4.63859 -74.15507 11711 ft 247 kts 247°
2026-04-25 13:10 4.63172 -74.17115 12322 ft 250 kts 246°
2026-04-25 13:10 4.62466 -74.18723 12959 ft 254 kts 246°
2026-04-25 13:11 4.61753 -74.20327 13601 ft 257 kts 247°
2026-04-25 13:11 4.61226 -74.22052 14158 ft 262 kts 261°
2026-04-25 13:11 4.60917 -74.23921 14386 ft 286 kts 260°
2026-04-25 13:11 4.60549 -74.25967 14555 ft 309 kts 257°
2026-04-25 13:12 4.59673 -74.28012 14657 ft 334 kts 232°
2026-04-25 13:12 4.58029 -74.29738 14807 ft 355 kts 224°
2026-04-25 13:12 4.56205 -74.31548 14946 ft 379 kts 226°
2026-04-25 13:12 4.55575 -74.32189 15024 ft 386 kts 226°
2026-04-25 13:13 4.52364 -74.35436 15847 ft 399 kts 221°
2026-04-25 13:13 4.49971 -74.36883 16301 ft 409 kts 200°
2026-04-25 13:13 4.47255 -74.37679 16894 ft 406 kts 199°
2026-04-25 13:13 4.44777 -74.39067 17257 ft 411 kts 219°
2026-04-25 13:14 4.43314 -74.40271 17558 ft 414 kts 219°
2026-04-25 13:14 4.40101 -74.42487 18406 ft 420 kts 210°
2026-04-25 13:14 4.38342 -74.43300 18797 ft 424 kts 199°
2026-04-25 13:14 4.35433 -74.43816 19377 ft 429 kts 181°
2026-04-25 13:15 4.32459 -74.43429 19969 ft 434 kts 163°
2026-04-25 13:15 4.29730 -74.42135 20568 ft 438 kts 145°
2026-04-25 13:15 4.27493 -74.40067 21156 ft 442 kts 128°
2026-04-25 13:15 4.25953 -74.37395 21718 ft 445 kts 110°
2026-04-25 13:16 4.25274 -74.34366 22359 ft 448 kts 92°
2026-04-25 13:16 4.25511 -74.31258 22967 ft 449 kts 76°
2026-04-25 13:16 4.26521 -74.28342 23560 ft 450 kts 62°
2026-04-25 13:16 4.28247 -74.25727 23967 ft 451 kts 52°
2026-04-25 13:17 4.30207 -74.23242 24091 ft 459 kts 50°
2026-04-25 13:17 4.32245 -74.20768 24172 ft 457 kts 50°
2026-04-25 13:17 4.34270 -74.18333 24189 ft 455 kts 50°
2026-04-25 13:17 4.36291 -74.15888 24211 ft 453 kts 50°
2026-04-25 13:18 4.38289 -74.13441 24242 ft 454 kts 51°
2026-04-25 13:18 4.40277 -74.10979 24251 ft 455 kts 51°
2026-04-25 13:18 4.42263 -74.08500 24449 ft 455 kts 51°
2026-04-25 13:18 4.44241 -74.06018 24737 ft 456 kts 51°
2026-04-25 13:19 4.46227 -74.03518 25073 ft 460 kts 52°
2026-04-25 13:19 4.48239 -74.00985 25347 ft 464 kts 52°
2026-04-25 13:19 4.50256 -73.98444 25572 ft 468 kts 52°
2026-04-25 13:19 4.51600 -73.96752 25726 ft 469 kts 52°
2026-04-25 13:20 4.54306 -73.93343 26069 ft 472 kts 52°
2026-04-25 13:20 4.56357 -73.90761 26581 ft 472 kts 52°
2026-04-25 13:20 4.58402 -73.88187 27127 ft 472 kts 52°
2026-04-25 13:20 4.60454 -73.85604 27612 ft 474 kts 52°
2026-04-25 13:21 4.62516 -73.83008 28024 ft 477 kts 52°
2026-04-25 13:21 4.64590 -73.80396 28411 ft 481 kts 52°
2026-04-25 13:21 4.66680 -73.77763 28789 ft 483 kts 53°
2026-04-25 13:21 4.68780 -73.75119 29215 ft 486 kts 53°
2026-04-25 13:22 4.70889 -73.72462 29595 ft 488 kts 53°
2026-04-25 13:22 4.73012 -73.69788 29953 ft 491 kts 53°
2026-04-25 13:22 4.75114 -73.67140 30307 ft 492 kts 53°
2026-04-25 13:23 4.79403 -73.61735 30869 ft 497 kts 53°
2026-04-25 13:23 4.81549 -73.59031 31376 ft 493 kts 53°
2026-04-25 13:23 4.83673 -73.56355 31922 ft 489 kts 53°
2026-04-25 13:23 4.85789 -73.53689 32433 ft 487 kts 54°
2026-04-25 13:24 4.87895 -73.51036 32845 ft 485 kts 54°
2026-04-25 13:24 4.89995 -73.48388 33278 ft 484 kts 54°
2026-04-25 13:24 4.92082 -73.45757 33748 ft 481 kts 54°
2026-04-25 13:24 4.94164 -73.43131 34115 ft 481 kts 54°
2026-04-25 13:25 4.96241 -73.40511 34495 ft 480 kts 54°
2026-04-25 13:25 4.98318 -73.37891 34877 ft 479 kts 54°
2026-04-25 13:25 5.00391 -73.35276 35145 ft 479 kts 54°
2026-04-25 13:26 5.04547 -73.30030 35141 ft 480 kts 54°
2026-04-25 13:26 5.08700 -73.24787 35151 ft 480 kts 54°
2026-04-25 13:27 5.12864 -73.19532 35153 ft 481 kts 54°
2026-04-25 13:27 5.17006 -73.14302 35150 ft 482 kts 54°
2026-04-25 13:28 5.21177 -73.09035 35127 ft 482 kts 54°
2026-04-25 13:28 5.25350 -73.03763 35162 ft 482 kts 54°
2026-04-25 13:29 5.29524 -72.98489 35176 ft 481 kts 54°
2026-04-25 13:29 5.33690 -72.93225 35132 ft 482 kts 54°
2026-04-25 13:30 5.39938 -72.85325 35170 ft 481 kts 54°
2026-04-25 13:31 5.46180 -72.77431 35127 ft 482 kts 54°
2026-04-25 13:31 5.50347 -72.72161 35136 ft 482 kts 54°
2026-04-25 13:32 5.54510 -72.66892 35111 ft 481 kts 54°
2026-04-25 13:32 5.58661 -72.61638 35118 ft 480 kts 54°
2026-04-25 13:33 5.62796 -72.56404 35118 ft 479 kts 54°
2026-04-25 13:33 5.66911 -72.51190 35102 ft 480 kts 54°
2026-04-25 13:34 5.71068 -72.45924 35130 ft 482 kts 54°
2026-04-25 13:34 5.75245 -72.40633 35113 ft 482 kts 54°
2026-04-25 13:35 5.79410 -72.35356 35061 ft 482 kts 54°
2026-04-25 13:35 5.83584 -72.30065 35103 ft 481 kts 54°
2026-04-25 13:36 5.87731 -72.24807 35050 ft 480 kts 54°
2026-04-25 13:36 5.91858 -72.19571 35040 ft 481 kts 54°
2026-04-25 13:37 5.96001 -72.14314 35076 ft 480 kts 54°
2026-04-25 13:37 6.00143 -72.09059 35032 ft 480 kts 54°
2026-04-25 13:38 6.04281 -72.03806 35035 ft 479 kts 54°
2026-04-25 13:38 6.08416 -71.98556 35065 ft 479 kts 54°
2026-04-25 13:39 6.12555 -71.93298 35024 ft 479 kts 54°
2026-04-25 13:39 6.16638 -71.88114 35010 ft 469 kts 54°
2026-04-25 13:40 6.20648 -71.83019 35010 ft 467 kts 54°
2026-04-25 13:40 6.24672 -71.77902 35019 ft 465 kts 54°
2026-04-25 13:41 6.28692 -71.72790 35000 ft 465 kts 54°
2026-04-25 13:41 6.32706 -71.67684 35003 ft 465 kts 54°
2026-04-25 13:42 6.36691 -71.62613 35022 ft 466 kts 54°
2026-04-25 13:42 6.40724 -71.57481 35003 ft 467 kts 54°
2026-04-25 13:43 6.44762 -71.52339 35002 ft 469 kts 53°
2026-04-25 13:43 6.48815 -71.47180 35000 ft 471 kts 53°
2026-04-25 13:44 6.52886 -71.41994 34986 ft 473 kts 53°
2026-04-25 13:44 6.56945 -71.36823 34987 ft 474 kts 53°
2026-04-25 13:45 6.61038 -71.31608 34986 ft 475 kts 53°
2026-04-25 13:45 6.65130 -71.26392 34984 ft 475 kts 53°
2026-04-25 13:46 6.69226 -71.21169 34988 ft 475 kts 53°
2026-04-25 13:46 6.73309 -71.15960 34984 ft 474 kts 53°
2026-04-25 13:47 6.77388 -71.10755 34971 ft 473 kts 53°
2026-04-25 13:47 6.81457 -71.05562 34984 ft 472 kts 53°
2026-04-25 13:48 6.85524 -71.00369 34985 ft 472 kts 53°
2026-04-25 13:48 6.89556 -70.95219 34978 ft 471 kts 53°
2026-04-25 13:49 6.93615 -70.90033 34966 ft 471 kts 53°
2026-04-25 13:49 6.97672 -70.84848 34981 ft 472 kts 53°
2026-04-25 13:50 7.01739 -70.79647 34978 ft 472 kts 53°
2026-04-25 13:50 7.05807 -70.74446 34996 ft 473 kts 53°
2026-04-25 13:51 7.10215 -70.69520 35002 ft 474 kts 47°
2026-04-25 13:51 7.14832 -70.64764 34991 ft 475 kts 47°
2026-04-25 13:52 7.19458 -70.59993 34993 ft 475 kts 47°
2026-04-25 13:52 7.24032 -70.55238 34991 ft 476 kts 47°
2026-04-25 13:53 7.28635 -70.50435 34979 ft 477 kts 47°
2026-04-25 13:53 7.33248 -70.45617 34979 ft 477 kts 47°
2026-04-25 13:54 7.37850 -70.40810 34981 ft 476 kts 47°
2026-04-25 13:54 7.42457 -70.35997 34981 ft 476 kts 47°
2026-04-25 13:55 7.47051 -70.31197 34982 ft 476 kts 47°
2026-04-25 13:55 7.51641 -70.26400 34986 ft 475 kts 47°
2026-04-25 13:56 7.56231 -70.21600 34981 ft 475 kts 47°
2026-04-25 13:56 7.60777 -70.16827 34980 ft 475 kts 47°
2026-04-25 13:57 7.65357 -70.12023 34989 ft 475 kts 47°
2026-04-25 13:57 7.69946 -70.07222 34983 ft 476 kts 47°
2026-04-25 13:58 7.74558 -70.02397 34986 ft 477 kts 47°
2026-04-25 13:58 7.79168 -69.97571 34986 ft 478 kts 47°
2026-04-25 13:59 7.83785 -69.92734 34985 ft 478 kts 47°
2026-04-25 13:59 7.88400 -69.87896 34984 ft 479 kts 47°
2026-04-25 14:00 7.92242 -69.83869 34984 ft 479 kts 47°
2026-04-25 14:00 7.96868 -69.79018 34992 ft 480 kts 47°
2026-04-25 14:01 8.01505 -69.74153 34998 ft 481 kts 47°
2026-04-25 14:01 8.06903 -69.68488 34990 ft 482 kts 47°
2026-04-25 14:02 8.10770 -69.64428 34992 ft 482 kts 47°
2026-04-25 14:02 8.15422 -69.59544 34993 ft 482 kts 47°
2026-04-25 14:03 8.20066 -69.54664 35004 ft 481 kts 47°
2026-04-25 14:03 8.24705 -69.49789 34993 ft 480 kts 47°
2026-04-25 14:04 8.29329 -69.44928 34995 ft 480 kts 47°
2026-04-25 14:04 8.33953 -69.40065 34998 ft 480 kts 47°
2026-04-25 14:05 8.38576 -69.35201 35003 ft 480 kts 47°
2026-04-25 14:05 8.43181 -69.30354 34996 ft 481 kts 47°
2026-04-25 14:06 8.47818 -69.25472 34995 ft 481 kts 47°
2026-04-25 14:06 8.52448 -69.20595 34999 ft 481 kts 48°
2026-04-25 14:07 8.57074 -69.15699 35000 ft 481 kts 48°
2026-04-25 14:07 8.61704 -69.10812 34996 ft 482 kts 48°
2026-04-25 14:08 8.66358 -69.05908 35006 ft 483 kts 48°
2026-04-25 14:08 8.70984 -69.01031 35002 ft 484 kts 48°
2026-04-25 14:09 8.75650 -68.96109 34999 ft 485 kts 48°
2026-04-25 14:09 8.80315 -68.91185 34998 ft 485 kts 48°
2026-04-25 14:10 8.84979 -68.86260 34996 ft 485 kts 48°
2026-04-25 14:10 8.89638 -68.81337 34997 ft 484 kts 48°
2026-04-25 14:11 8.94299 -68.76411 34993 ft 484 kts 48°
2026-04-25 14:11 8.98946 -68.71497 34989 ft 483 kts 48°
2026-04-25 14:12 9.03589 -68.66586 34995 ft 483 kts 48°
2026-04-25 14:12 9.08234 -68.61672 34994 ft 482 kts 48°
2026-04-25 14:13 9.12840 -68.56796 34992 ft 482 kts 48°
2026-04-25 14:13 9.17482 -68.51880 34995 ft 482 kts 48°
2026-04-25 14:14 9.22126 -68.46960 34999 ft 483 kts 48°
2026-04-25 14:14 9.26772 -68.42035 34987 ft 484 kts 48°
2026-04-25 14:15 9.31421 -68.37106 34999 ft 484 kts 48°
2026-04-25 14:15 9.36077 -68.32168 34991 ft 485 kts 48°
2026-04-25 14:16 9.40742 -68.27218 34992 ft 486 kts 48°
2026-04-25 14:16 9.45380 -68.22294 34995 ft 486 kts 48°
2026-04-25 14:17 9.50044 -68.17341 34980 ft 486 kts 48°
2026-04-25 14:17 9.54716 -68.12377 34999 ft 486 kts 48°
2026-04-25 14:18 9.59395 -68.07403 35003 ft 487 kts 48°
2026-04-25 14:18 9.64070 -68.02432 35005 ft 488 kts 48°
2026-04-25 14:19 9.68726 -67.97479 35013 ft 488 kts 48°
2026-04-25 14:19 9.73407 -67.92497 35010 ft 488 kts 48°
2026-04-25 14:20 9.78091 -67.87511 35009 ft 488 kts 48°
2026-04-25 14:20 9.82778 -67.82517 34999 ft 488 kts 48°
2026-04-25 14:21 9.87468 -67.77519 35027 ft 489 kts 48°
2026-04-25 14:21 9.92161 -67.72515 35028 ft 490 kts 48°
2026-04-25 14:22 9.96867 -67.67497 35028 ft 490 kts 48°
2026-04-25 14:22 10.01576 -67.62472 35031 ft 491 kts 48°
2026-04-25 14:23 10.06246 -67.57488 35029 ft 490 kts 48°
2026-04-25 14:23 10.10952 -67.52461 35007 ft 491 kts 48°
2026-04-25 14:24 10.15654 -67.47436 35018 ft 491 kts 48°
2026-04-25 14:24 10.20344 -67.42423 34997 ft 491 kts 48°
2026-04-25 14:25 10.25062 -67.37377 35029 ft 492 kts 48°
2026-04-25 14:25 10.29768 -67.32343 35020 ft 492 kts 48°
2026-04-25 14:26 10.34484 -67.27296 35031 ft 492 kts 48°
2026-04-25 14:26 10.39194 -67.22253 35035 ft 492 kts 48°
2026-04-25 14:27 10.43907 -67.17205 35014 ft 492 kts 48°
2026-04-25 14:27 10.48590 -67.12187 35000 ft 492 kts 48°
2026-04-25 14:28 10.53294 -67.07147 35012 ft 491 kts 48°
2026-04-25 14:28 10.58001 -67.02101 34969 ft 491 kts 48°
2026-04-25 14:29 10.62451 -66.96841 34977 ft 490 kts 57°
2026-04-25 14:29 10.66247 -66.91082 34976 ft 491 kts 58°
2026-04-25 14:30 10.70025 -66.85297 34985 ft 492 kts 58°
2026-04-25 14:30 10.75744 -66.76673 34984 ft 491 kts 58°
2026-04-25 14:31 10.79580 -66.70917 34991 ft 491 kts 58°
2026-04-25 14:31 10.83415 -66.65157 34956 ft 491 kts 58°
2026-04-25 14:32 10.87225 -66.59427 34956 ft 492 kts 58°
2026-04-25 14:32 10.91063 -66.53654 34973 ft 492 kts 58°
2026-04-25 14:33 10.94900 -66.47879 34966 ft 493 kts 58°
2026-04-25 14:33 10.98745 -66.42095 34970 ft 495 kts 58°
2026-04-25 14:34 11.02589 -66.36304 34963 ft 492 kts 58°
2026-04-25 14:34 11.06450 -66.30562 34948 ft 490 kts 57°
2026-04-25 14:35 11.10331 -66.24855 34972 ft 490 kts 57°
2026-04-25 14:35 11.14219 -66.19136 34970 ft 492 kts 57°
2026-04-25 14:36 11.18100 -66.13415 34972 ft 494 kts 57°
2026-04-25 14:36 11.22010 -66.07634 34958 ft 496 kts 58°
2026-04-25 14:37 11.25863 -66.01921 34953 ft 498 kts 58°
2026-04-25 14:37 11.29739 -65.96180 34973 ft 497 kts 58°
2026-04-25 14:38 11.33582 -65.90512 34975 ft 492 kts 58°
2026-04-25 14:38 11.37433 -65.84829 34978 ft 494 kts 57°
2026-04-25 14:39 11.41357 -65.79044 34973 ft 497 kts 57°
2026-04-25 14:39 11.45218 -65.73319 34976 ft 498 kts 58°
2026-04-25 14:40 11.49153 -65.67451 34974 ft 499 kts 58°
2026-04-25 14:40 11.53083 -65.61608 34959 ft 499 kts 57°
2026-04-25 14:41 11.57011 -65.55783 34955 ft 497 kts 58°
2026-04-25 14:41 11.60925 -65.49979 34967 ft 496 kts 58°
2026-04-25 14:42 11.63513 -65.46145 34977 ft 495 kts 58°
2026-04-25 14:42 11.68699 -65.38450 34964 ft 493 kts 57°
2026-04-25 14:43 11.72609 -65.32755 34973 ft 493 kts 57°
2026-04-25 14:43 11.76562 -65.27049 34960 ft 493 kts 57°
2026-04-25 14:44 11.80531 -65.21319 34979 ft 494 kts 57°
2026-04-25 14:44 11.84499 -65.15579 34979 ft 496 kts 57°
2026-04-25 14:45 11.88486 -65.09805 34976 ft 498 kts 57°
2026-04-25 14:45 11.92474 -65.04027 34975 ft 499 kts 57°
2026-04-25 14:46 11.95796 -64.99210 34978 ft 499 kts 57°
2026-04-25 14:46 12.00448 -64.92462 34979 ft 500 kts 57°
2026-04-25 14:47 12.03131 -64.88568 34976 ft 500 kts 57°
2026-04-25 14:47 12.08468 -64.80818 34978 ft 501 kts 57°
2026-04-25 14:48 12.12451 -64.75032 34979 ft 501 kts 57°
2026-04-25 14:48 12.15776 -64.70199 34964 ft 500 kts 57°
2026-04-25 14:49 12.19783 -64.64372 34964 ft 500 kts 57°
2026-04-25 14:49 12.23783 -64.58553 34979 ft 500 kts 57°
2026-04-25 14:50 12.27781 -64.52738 34964 ft 499 kts 57°
2026-04-25 14:50 12.31561 -64.47245 34983 ft 499 kts 57°
2026-04-25 14:51 12.35545 -64.41441 34970 ft 498 kts 57°
2026-04-25 14:51 12.39463 -64.35649 34967 ft 498 kts 58°
2026-04-25 14:52 12.43384 -64.29796 34967 ft 498 kts 58°
2026-04-25 14:52 12.46647 -64.24943 34981 ft 498 kts 57°
2026-04-25 14:53 12.51241 -64.18130 34983 ft 498 kts 57°
2026-04-25 14:53 12.55182 -64.12287 34971 ft 498 kts 57°
2026-04-25 14:54 12.59109 -64.06460 34990 ft 497 kts 57°
2026-04-25 14:54 12.63011 -64.00666 34972 ft 496 kts 57°
2026-04-25 14:55 12.66951 -63.94814 34970 ft 495 kts 57°
2026-04-25 14:55 12.70824 -63.89059 34974 ft 494 kts 57°
2026-04-25 14:56 12.74720 -63.83275 34973 ft 493 kts 57°
2026-04-25 14:56 12.78606 -63.77501 34975 ft 491 kts 58°
2026-04-25 14:57 12.82472 -63.71749 34973 ft 489 kts 57°
2026-04-25 14:57 12.86344 -63.66006 34974 ft 488 kts 56°
2026-04-25 14:58 12.90550 -63.60564 34977 ft 487 kts 52°
2026-04-25 14:58 12.94868 -63.55203 34992 ft 488 kts 52°
2026-04-25 14:59 12.99171 -63.49869 34993 ft 489 kts 52°
2026-04-25 14:59 13.03494 -63.44491 34993 ft 490 kts 52°
2026-04-25 15:00 13.07840 -63.39073 34976 ft 491 kts 53°
2026-04-25 15:00 13.12186 -63.33647 34977 ft 492 kts 53°
2026-04-25 15:01 13.16541 -63.28209 34979 ft 493 kts 53°
2026-04-25 15:01 13.20892 -63.22772 34995 ft 493 kts 53°
2026-04-25 15:02 13.25224 -63.17355 34983 ft 493 kts 53°
2026-04-25 15:02 13.29575 -63.11912 34979 ft 492 kts 53°
2026-04-25 15:03 13.33917 -63.06475 34991 ft 492 kts 53°
2026-04-25 15:03 13.38253 -63.01044 34977 ft 491 kts 53°
2026-04-25 15:04 13.42585 -62.95613 34998 ft 492 kts 53°
2026-04-25 15:04 13.46924 -62.90171 34982 ft 492 kts 53°
2026-04-25 15:05 13.51275 -62.84711 34982 ft 493 kts 53°
2026-04-25 15:06 13.57807 -62.76508 34983 ft 495 kts 53°
2026-04-25 15:06 13.62166 -62.71028 34982 ft 495 kts 53°
2026-04-25 15:07 13.66498 -62.65579 34986 ft 496 kts 53°
2026-04-25 15:07 13.70870 -62.60076 34987 ft 496 kts 53°
2026-04-25 15:08 13.75236 -62.54577 34992 ft 496 kts 53°
2026-04-25 15:08 13.79600 -62.49077 34987 ft 496 kts 53°
2026-04-25 15:09 13.83971 -62.43565 34986 ft 497 kts 53°
2026-04-25 15:09 13.90521 -62.35299 34983 ft 497 kts 53°
2026-04-25 15:10 13.94882 -62.29790 34988 ft 497 kts 53°
2026-04-25 15:11 14.01413 -62.21533 34990 ft 497 kts 53°
2026-04-25 15:11 14.05790 -62.15995 34989 ft 498 kts 53°
2026-04-25 15:12 14.12366 -62.07669 34991 ft 499 kts 53°
2026-04-25 15:12 14.15299 -62.03952 34994 ft 500 kts 53°
2026-04-25 15:13 14.23335 -61.93760 34993 ft 501 kts 53°
2026-04-25 15:14 14.27738 -61.88171 34980 ft 501 kts 53°
2026-04-25 15:14 14.32106 -61.82622 34989 ft 502 kts 53°
2026-04-25 15:15 14.35796 -61.77932 34991 ft 502 kts 53°
2026-04-25 15:15 14.40910 -61.71427 34988 ft 503 kts 53°
2026-04-25 15:16 14.45314 -61.65822 34983 ft 503 kts 53°
2026-04-25 15:16 14.51926 -61.57399 34990 ft 503 kts 53°
2026-04-25 15:17 14.58531 -61.48977 34988 ft 503 kts 53°
2026-04-25 15:18 14.62930 -61.43364 34989 ft 503 kts 53°
2026-04-25 15:18 14.69495 -61.34981 34992 ft 502 kts 53°
2026-04-25 15:19 14.72436 -61.31223 34986 ft 502 kts 53°
2026-04-25 15:19 14.78290 -61.23742 34994 ft 503 kts 53°
2026-04-25 15:20 14.82685 -61.18127 35001 ft 503 kts 53°
2026-04-25 15:20 14.87094 -61.12491 34992 ft 504 kts 53°
2026-04-25 15:21 14.91491 -61.06833 35001 ft 504 kts 53°
2026-04-25 15:21 14.95879 -61.01166 34997 ft 505 kts 53°
2026-04-25 15:22 15.00250 -60.95540 35001 ft 505 kts 53°
2026-04-25 15:22 15.04659 -60.89874 35008 ft 505 kts 53°
2026-04-25 15:23 15.09066 -60.84210 35002 ft 505 kts 53°
2026-04-25 15:23 15.13478 -60.78534 35002 ft 505 kts 53°
2026-04-25 15:24 15.17888 -60.72856 35001 ft 505 kts 53°
2026-04-25 15:24 15.20804 -60.69098 35000 ft 505 kts 53°
2026-04-25 15:25 15.26695 -60.61501 35003 ft 505 kts 53°
2026-04-25 15:25 15.31099 -60.55816 35008 ft 506 kts 52°
2026-04-25 15:26 15.35479 -60.50160 35002 ft 506 kts 52°
2026-04-25 15:26 15.39883 -60.44468 34998 ft 506 kts 53°
2026-04-25 15:27 15.44286 -60.38773 35005 ft 506 kts 53°
2026-04-25 15:28 15.50881 -60.30235 35008 ft 506 kts 53°
2026-04-25 15:28 15.55282 -60.24531 35015 ft 506 kts 52°
2026-04-25 15:29 15.59657 -60.18858 35008 ft 506 kts 52°
2026-04-25 15:29 15.64059 -60.13146 35005 ft 506 kts 52°
2026-04-25 15:30 15.68456 -60.07435 35002 ft 506 kts 52°
2026-04-25 15:30 15.72853 -60.01720 35012 ft 506 kts 52°
2026-04-25 15:31 15.77249 -59.96002 35011 ft 506 kts 52°
2026-04-25 15:31 15.81640 -59.90287 35008 ft 507 kts 52°
2026-04-25 15:32 15.86031 -59.84568 35007 ft 507 kts 52°
2026-04-25 15:32 15.90398 -59.78875 35008 ft 506 kts 52°
2026-04-25 15:33 15.96983 -59.70286 35008 ft 506 kts 52°
2026-04-25 15:33 16.01374 -59.64554 35008 ft 506 kts 52°
2026-04-25 15:34 16.05027 -59.59783 35009 ft 506 kts 52°
2026-04-25 15:34 16.08677 -59.55016 35007 ft 506 kts 52°
2026-04-25 15:35 16.16002 -59.45449 35009 ft 507 kts 52°
2026-04-25 15:36 16.22537 -59.36836 35008 ft 507 kts 53°
2026-04-25 15:36 16.26904 -59.31075 35007 ft 507 kts 52°
2026-04-25 15:37 16.31288 -59.25308 35015 ft 507 kts 52°
2026-04-25 15:37 16.35674 -59.19541 35011 ft 508 kts 52°
2026-04-25 15:38 16.40063 -59.13767 35011 ft 508 kts 52°
2026-04-25 15:38 16.44452 -59.07987 35015 ft 509 kts 52°
2026-04-25 15:39 16.48844 -59.02198 35010 ft 509 kts 52°
2026-04-25 15:39 16.53199 -58.96453 35013 ft 508 kts 52°
2026-04-25 15:40 16.56869 -58.91606 35010 ft 508 kts 52°
2026-04-25 15:40 16.61999 -58.84826 35014 ft 509 kts 52°
2026-04-25 15:41 16.66357 -58.79063 35019 ft 509 kts 52°
2026-04-25 15:41 16.70751 -58.73247 35017 ft 510 kts 52°
2026-04-25 15:42 16.75139 -58.67434 35018 ft 510 kts 52°
2026-04-25 15:42 16.79536 -58.61604 35016 ft 511 kts 52°
2026-04-25 15:43 16.83937 -58.55764 35016 ft 512 kts 52°
2026-04-25 15:43 16.88315 -58.49950 35023 ft 512 kts 52°
2026-04-25 15:44 16.92720 -58.44095 35014 ft 512 kts 52°
2026-04-25 15:44 16.97122 -58.38240 35016 ft 512 kts 52°
2026-04-25 15:45 17.01520 -58.32384 35020 ft 512 kts 52°
2026-04-25 15:45 17.05170 -58.27521 35022 ft 512 kts 52°
2026-04-25 15:46 17.10304 -58.20674 35023 ft 512 kts 52°
2026-04-25 15:46 17.14695 -58.14814 35017 ft 511 kts 52°
2026-04-25 15:47 17.19084 -58.08951 35018 ft 511 kts 52°
2026-04-25 15:47 17.23465 -58.03095 35027 ft 511 kts 52°
2026-04-25 15:48 17.27846 -57.97231 35037 ft 512 kts 52°
2026-04-25 15:48 17.32210 -57.91388 35031 ft 512 kts 52°
2026-04-25 15:49 17.36594 -57.85514 35030 ft 512 kts 52°
2026-04-25 15:49 17.40979 -57.79633 35027 ft 513 kts 52°
2026-04-25 15:50 17.45365 -57.73746 35026 ft 513 kts 52°
2026-04-25 15:50 17.49763 -57.67840 35027 ft 513 kts 52°
2026-04-25 15:51 17.53417 -57.62931 35032 ft 513 kts 52°
2026-04-25 15:51 17.58518 -57.56079 35030 ft 513 kts 52°
2026-04-25 15:52 17.62901 -57.50189 35030 ft 512 kts 52°
2026-04-25 15:52 17.67266 -57.44283 35033 ft 512 kts 52°
2026-04-25 15:53 17.71627 -57.38365 35035 ft 512 kts 52°
2026-04-25 15:53 17.75987 -57.32466 35035 ft 512 kts 52°
2026-04-25 15:54 17.80357 -57.26561 35027 ft 512 kts 52°
2026-04-25 15:54 17.84684 -57.20711 35036 ft 512 kts 52°
2026-04-25 15:55 17.89056 -57.14796 35038 ft 512 kts 52°
2026-04-25 15:55 17.93043 -57.08680 35043 ft 512 kts 68°
2026-04-25 15:56 17.94119 -57.05142 35030 ft 507 kts 81°
2026-04-25 15:56 17.94991 -57.01616 35002 ft 504 kts 70°
2026-04-25 15:56 17.96616 -56.98339 35045 ft 510 kts 54°
2026-04-25 15:56 17.98783 -56.95361 35071 ft 517 kts 55°
2026-04-25 15:57 18.02160 -56.88639 35043 ft 522 kts 68°
2026-04-25 15:57 18.04905 -56.81578 35011 ft 518 kts 69°
2026-04-25 15:58 18.07741 -56.74704 35031 ft 509 kts 67°
2026-04-25 15:58 18.10747 -56.67941 35046 ft 511 kts 65°
2026-04-25 15:59 18.13832 -56.61180 35047 ft 513 kts 65°
2026-04-25 15:59 18.16905 -56.54438 35046 ft 515 kts 65°
2026-04-25 16:00 18.18965 -56.49896 35040 ft 515 kts 66°
2026-04-25 16:00 18.23056 -56.40835 35037 ft 515 kts 66°
2026-04-25 16:01 18.26124 -56.34023 35031 ft 514 kts 66°
2026-04-25 16:01 18.29178 -56.27241 35035 ft 512 kts 66°
2026-04-25 16:02 18.32226 -56.20464 35031 ft 511 kts 66°
2026-04-25 16:02 18.35264 -56.13700 35033 ft 510 kts 66°
2026-04-25 16:03 18.38270 -56.07002 35035 ft 510 kts 66°
2026-04-25 16:03 18.41299 -56.00244 35041 ft 511 kts 66°
2026-04-25 16:04 18.44337 -55.93459 35046 ft 512 kts 66°
2026-04-25 16:04 18.47380 -55.86656 35045 ft 514 kts 66°
2026-04-25 16:05 18.50409 -55.79878 35045 ft 515 kts 66°
2026-04-25 16:06 18.54991 -55.69607 35045 ft 516 kts 66°
2026-04-25 16:06 18.58042 -55.62756 35025 ft 515 kts 66°
2026-04-25 16:07 18.61092 -55.55899 35046 ft 515 kts 66°
2026-04-25 16:07 18.64132 -55.49060 35048 ft 515 kts 66°
2026-04-25 16:08 18.67165 -55.42228 35043 ft 514 kts 66°
2026-04-25 16:08 18.70178 -55.35432 35037 ft 513 kts 66°
2026-04-25 16:09 18.73197 -55.28613 35042 ft 513 kts 66°
2026-04-25 16:09 18.76215 -55.21790 35045 ft 512 kts 66°
2026-04-25 16:10 18.79233 -55.14957 35044 ft 513 kts 66°
2026-04-25 16:10 18.82246 -55.08130 35044 ft 513 kts 66°
2026-04-25 16:11 18.85260 -55.01292 35051 ft 514 kts 66°
2026-04-25 16:11 18.88256 -54.94488 35048 ft 515 kts 66°
2026-04-25 16:12 18.91274 -54.87624 35044 ft 515 kts 66°
2026-04-25 16:12 18.94299 -54.80738 35046 ft 515 kts 66°
2026-04-25 16:13 18.97312 -54.73866 35038 ft 515 kts 66°
2026-04-25 16:13 19.00325 -54.66991 35047 ft 515 kts 66°
2026-04-25 16:14 19.03332 -54.60119 35047 ft 515 kts 66°
2026-04-25 16:14 19.06340 -54.53237 35047 ft 515 kts 66°
2026-04-25 16:15 19.09343 -54.46358 35048 ft 515 kts 66°
2026-04-25 16:15 19.12340 -54.39483 35048 ft 514 kts 66°
2026-04-25 16:16 19.15315 -54.32652 35041 ft 515 kts 66°
2026-04-25 16:16 19.18310 -54.25765 35048 ft 515 kts 66°
2026-04-25 16:17 19.21306 -54.18869 35049 ft 515 kts 66°
2026-04-25 16:17 19.24298 -54.11974 35058 ft 515 kts 66°
2026-04-25 16:18 19.26784 -54.06238 35047 ft 515 kts 66°
2026-04-25 16:18 19.29771 -53.99340 35041 ft 515 kts 66°
2026-04-25 16:19 19.33241 -53.91311 35045 ft 515 kts 66°
2026-04-25 16:19 19.35734 -53.85537 35050 ft 515 kts 66°
2026-04-25 16:20 19.40186 -53.75213 35052 ft 516 kts 66°
2026-04-25 16:21 19.44652 -53.64836 35046 ft 516 kts 66°
2026-04-25 16:21 19.47633 -53.57899 35058 ft 516 kts 66°
2026-04-25 16:22 19.50604 -53.50975 35051 ft 517 kts 66°
2026-04-25 16:22 19.53574 -53.44045 35056 ft 517 kts 66°
2026-04-25 16:23 19.56555 -53.37082 35055 ft 518 kts 66°
2026-04-25 16:23 19.59532 -53.30122 35053 ft 519 kts 66°
2026-04-25 16:24 19.62517 -53.23132 35051 ft 519 kts 66°
2026-04-25 16:24 19.65495 -53.16149 35055 ft 519 kts 66°
2026-04-25 16:25 19.68449 -53.09212 35050 ft 520 kts 66°
2026-04-25 16:25 19.71425 -53.02215 35055 ft 520 kts 66°
2026-04-25 16:26 19.74398 -52.95219 35056 ft 520 kts 66°
2026-04-25 16:26 19.77369 -52.88217 35054 ft 520 kts 66°
2026-04-25 16:27 19.80337 -52.81211 35055 ft 520 kts 66°
2026-04-25 16:27 19.83282 -52.74255 35056 ft 520 kts 66°
2026-04-25 16:28 19.86244 -52.67245 35054 ft 520 kts 66°
2026-04-25 16:28 19.89206 -52.60227 35055 ft 521 kts 66°
2026-04-25 16:29 19.92165 -52.53209 35054 ft 521 kts 66°
2026-04-25 16:29 19.95126 -52.46176 35059 ft 521 kts 66°
2026-04-25 16:30 19.98081 -52.39148 35055 ft 521 kts 66°
2026-04-25 16:30 20.01033 -52.32118 35057 ft 521 kts 66°
2026-04-25 16:31 20.03962 -52.25132 35055 ft 520 kts 66°
2026-04-25 16:31 20.06905 -52.18105 35053 ft 520 kts 66°
2026-04-25 16:32 20.09846 -52.11075 35051 ft 520 kts 66°
2026-04-25 16:32 20.12777 -52.04056 35054 ft 519 kts 66°
2026-04-25 16:33 20.15706 -51.97035 35057 ft 519 kts 66°
2026-04-25 16:33 20.18614 -51.90056 35059 ft 519 kts 66°
2026-04-25 16:34 20.21539 -51.83024 35055 ft 520 kts 66°
2026-04-25 16:34 20.24467 -51.75977 35059 ft 521 kts 66°
2026-04-25 16:35 20.27397 -51.68918 35059 ft 522 kts 66°
2026-04-25 16:35 20.30327 -51.61846 35058 ft 522 kts 66°
2026-04-25 16:36 20.33262 -51.54756 35055 ft 523 kts 66°
2026-04-25 16:36 20.36169 -51.47722 35056 ft 523 kts 66°
2026-04-25 16:37 20.39099 -51.40621 35060 ft 523 kts 66°
2026-04-25 16:37 20.42024 -51.33524 35062 ft 523 kts 66°
2026-04-25 16:38 20.44948 -51.26420 35054 ft 523 kts 66°
2026-04-25 16:38 20.47847 -51.19369 35058 ft 522 kts 66°
2026-04-25 16:39 20.50759 -51.12273 35064 ft 523 kts 66°
2026-04-25 16:39 20.53670 -51.05173 35060 ft 523 kts 66°
2026-04-25 16:40 20.56584 -50.98053 35057 ft 523 kts 66°
2026-04-25 16:40 20.59472 -50.90992 35063 ft 523 kts 66°
2026-04-25 16:41 20.62382 -50.83865 35064 ft 524 kts 66°
2026-04-25 16:41 20.66745 -50.73161 35062 ft 525 kts 66°
2026-04-25 16:42 20.69655 -50.66007 35061 ft 525 kts 66°
2026-04-25 16:42 20.72542 -50.58904 35067 ft 525 kts 66°
2026-04-25 16:43 20.75451 -50.51737 35059 ft 526 kts 66°
2026-04-25 16:43 20.78356 -50.44570 35065 ft 526 kts 66°
2026-04-25 16:44 20.81260 -50.37397 35073 ft 526 kts 66°
2026-04-25 16:44 20.84164 -50.30214 35065 ft 526 kts 66°
2026-04-25 16:45 20.87067 -50.23026 35062 ft 526 kts 66°
2026-04-25 16:45 20.89951 -50.15884 35055 ft 526 kts 66°
2026-04-25 16:46 20.92853 -50.08700 35070 ft 526 kts 66°
2026-04-25 16:46 20.95261 -50.02721 35066 ft 526 kts 66°
2026-04-25 16:47 20.98055 -49.94065 35058 ft 526 kts 76°
2026-04-25 16:47 20.99750 -49.86437 35062 ft 527 kts 77°
2026-04-25 16:48 21.01430 -49.78839 35068 ft 528 kts 77°
2026-04-25 16:48 21.03171 -49.71198 35062 ft 529 kts 76°
2026-04-25 16:49 21.04943 -49.63536 35069 ft 530 kts 76°
2026-04-25 16:49 21.06716 -49.55872 35068 ft 530 kts 76°
2026-04-25 16:50 21.08485 -49.48190 35065 ft 531 kts 76°
2026-04-25 16:50 21.10237 -49.40555 35066 ft 530 kts 76°
2026-04-25 16:51 21.11993 -49.32881 35062 ft 530 kts 76°
2026-04-25 16:51 21.13451 -49.26502 35057 ft 530 kts 76°
2026-04-25 16:52 21.15495 -49.17533 35064 ft 530 kts 76°
2026-04-25 16:52 21.17239 -49.09865 35062 ft 529 kts 76°
2026-04-25 16:53 21.19835 -48.98421 35071 ft 529 kts 76°
2026-04-25 16:54 21.21570 -48.90749 35060 ft 529 kts 76°
2026-04-25 16:54 21.23301 -48.83079 35063 ft 529 kts 76°
2026-04-25 16:55 21.25029 -48.75408 35066 ft 530 kts 76°
2026-04-25 16:55 21.26756 -48.67721 35068 ft 530 kts 76°
2026-04-25 16:56 21.28479 -48.60033 35067 ft 530 kts 76°
2026-04-25 16:56 21.30197 -48.52353 35077 ft 530 kts 76°
2026-04-25 16:57 21.31903 -48.44709 35072 ft 530 kts 76°
2026-04-25 16:57 21.33618 -48.37006 35071 ft 530 kts 76°
2026-04-25 16:58 21.35328 -48.29307 35068 ft 530 kts 76°
2026-04-25 16:58 21.37035 -48.21605 35070 ft 530 kts 76°
2026-04-25 16:59 21.38736 -48.13913 35073 ft 530 kts 76°
2026-04-25 16:59 21.40437 -48.06203 35070 ft 530 kts 76°
2026-04-25 17:00 21.41847 -47.99797 35066 ft 530 kts 76°
2026-04-25 17:00 21.43811 -47.90855 35073 ft 530 kts 76°
2026-04-25 17:01 21.45500 -47.83149 35077 ft 530 kts 76°
2026-04-25 17:01 21.47184 -47.75444 35072 ft 530 kts 76°
2026-04-25 17:02 21.48862 -47.67748 35073 ft 530 kts 76°
2026-04-25 17:02 21.50540 -47.60035 35084 ft 530 kts 76°
2026-04-25 17:03 21.52212 -47.52334 35072 ft 530 kts 76°
2026-04-25 17:03 21.53884 -47.44614 35075 ft 529 kts 76°
2026-04-25 17:04 21.55547 -47.36915 35068 ft 529 kts 76°
2026-04-25 17:04 21.57207 -47.29213 35073 ft 529 kts 76°
2026-04-25 17:05 21.58863 -47.21512 35073 ft 529 kts 76°
2026-04-25 17:05 21.61331 -47.10000 35081 ft 529 kts 76°
2026-04-25 17:06 21.62979 -47.02290 35073 ft 529 kts 76°
2026-04-25 17:06 21.64624 -46.94578 35071 ft 529 kts 76°
2026-04-25 17:07 21.66266 -46.86860 35073 ft 529 kts 76°
2026-04-25 17:07 21.67904 -46.79143 35074 ft 529 kts 76°
2026-04-25 17:08 21.69536 -46.71433 35076 ft 529 kts 76°
2026-04-25 17:08 21.71115 -46.63957 35080 ft 529 kts 76°
2026-04-25 17:09 21.72742 -46.56236 35072 ft 529 kts 76°
2026-04-25 17:09 21.74367 -46.48507 35077 ft 529 kts 76°
2026-04-25 17:10 21.75990 -46.40767 35077 ft 530 kts 76°
2026-04-25 17:10 21.77609 -46.33027 35074 ft 529 kts 76°
2026-04-25 17:11 21.79220 -46.25306 35094 ft 530 kts 77°
2026-04-25 17:11 21.80831 -46.17565 35081 ft 530 kts 77°
2026-04-25 17:12 21.82441 -46.09814 35081 ft 531 kts 77°
2026-04-25 17:12 21.84037 -46.02109 35079 ft 531 kts 77°
2026-04-25 17:13 21.85110 -45.96918 35069 ft 531 kts 77°
2026-04-25 17:13 21.87239 -45.86589 35078 ft 530 kts 77°
2026-04-25 17:14 21.88832 -45.78842 35090 ft 530 kts 77°
2026-04-25 17:14 21.90423 -45.71081 35083 ft 530 kts 77°
2026-04-25 17:15 21.92011 -45.63321 35080 ft 530 kts 77°
2026-04-25 17:15 21.93328 -45.56867 35085 ft 530 kts 77°
2026-04-25 17:16 21.94907 -45.49112 35083 ft 530 kts 77°
2026-04-25 17:16 21.96486 -45.41339 35084 ft 530 kts 77°
2026-04-25 17:17 21.98057 -45.33583 35087 ft 530 kts 76°
2026-04-25 17:17 21.99618 -45.25855 35080 ft 530 kts 76°
2026-04-25 17:18 22.01182 -45.18096 35080 ft 529 kts 77°
2026-04-25 17:18 22.02740 -45.10349 35085 ft 529 kts 77°
2026-04-25 17:19 22.04294 -45.02601 35084 ft 529 kts 77°
2026-04-25 17:19 22.05845 -44.94845 35084 ft 529 kts 77°
2026-04-25 17:20 22.07393 -44.87084 35087 ft 529 kts 77°
2026-04-25 17:20 22.08938 -44.79319 35091 ft 529 kts 76°
2026-04-25 17:21 22.10469 -44.71606 35085 ft 529 kts 77°
2026-04-25 17:21 22.12005 -44.63848 35085 ft 529 kts 77°
2026-04-25 17:22 22.13284 -44.57374 35090 ft 529 kts 77°
2026-04-25 17:22 22.15071 -44.48297 35083 ft 529 kts 77°
2026-04-25 17:23 22.16587 -44.40579 35092 ft 529 kts 76°
2026-04-25 17:23 22.18108 -44.32819 35085 ft 528 kts 76°
2026-04-25 17:24 22.19624 -44.25059 35086 ft 528 kts 77°
2026-04-25 17:24 22.21136 -44.17295 35083 ft 528 kts 76°
2026-04-25 17:25 22.22645 -44.09531 35092 ft 528 kts 77°
2026-04-25 17:25 22.24151 -44.01766 35095 ft 528 kts 76°
2026-04-25 17:26 22.25653 -43.93996 35087 ft 528 kts 76°
2026-04-25 17:26 22.27151 -43.86226 35092 ft 529 kts 77°
2026-04-25 17:27 22.28636 -43.78502 35091 ft 529 kts 76°
2026-04-25 17:27 22.29889 -43.71971 35089 ft 530 kts 77°
2026-04-25 17:28 22.31622 -43.62911 35094 ft 530 kts 76°
2026-04-25 17:28 22.33109 -43.55117 35091 ft 530 kts 77°
2026-04-25 17:29 22.34595 -43.47307 35084 ft 530 kts 77°
2026-04-25 17:29 22.36074 -43.39509 35097 ft 529 kts 77°
2026-04-25 17:30 22.37547 -43.31718 35090 ft 529 kts 77°
2026-04-25 17:30 22.39015 -43.23939 35092 ft 528 kts 77°
2026-04-25 17:31 22.40468 -43.16213 35097 ft 528 kts 77°
2026-04-25 17:31 22.41931 -43.08419 35096 ft 528 kts 77°
2026-04-25 17:32 22.43385 -43.00646 35102 ft 528 kts 77°
2026-04-25 17:32 22.44839 -42.92856 35095 ft 528 kts 77°
2026-04-25 17:33 22.46288 -42.85070 35095 ft 529 kts 77°
2026-04-25 17:33 22.47735 -42.77270 35095 ft 529 kts 77°
2026-04-25 17:34 22.49180 -42.69462 35097 ft 529 kts 77°
2026-04-25 17:34 22.50622 -42.61645 35094 ft 530 kts 77°
2026-04-25 17:35 22.52052 -42.53876 35102 ft 530 kts 77°
2026-04-25 17:35 22.53486 -42.46059 35094 ft 531 kts 77°
2026-04-25 17:36 22.54921 -42.38215 35101 ft 531 kts 77°
2026-04-25 17:36 22.56353 -42.30367 35097 ft 531 kts 77°
2026-04-25 17:37 22.57781 -42.22520 35095 ft 531 kts 77°
2026-04-25 17:37 22.59204 -42.14670 35097 ft 531 kts 77°
2026-04-25 17:38 22.60386 -42.08140 35095 ft 531 kts 77°
2026-04-25 17:38 22.62039 -41.98976 35099 ft 531 kts 77°
2026-04-25 17:39 22.63464 -41.91050 35100 ft 531 kts 77°
2026-04-25 17:39 22.64856 -41.83286 35097 ft 531 kts 77°
2026-04-25 17:40 22.66249 -41.75496 35098 ft 530 kts 77°
2026-04-25 17:40 22.67647 -41.67652 35098 ft 530 kts 77°
2026-04-25 17:41 22.69041 -41.59813 35100 ft 530 kts 77°
2026-04-25 17:41 22.70431 -41.51971 35108 ft 530 kts 77°
2026-04-25 17:42 22.71817 -41.44128 35102 ft 530 kts 77°
2026-04-25 17:42 22.73200 -41.36279 35102 ft 530 kts 77°
2026-04-25 17:43 22.74579 -41.28427 35104 ft 531 kts 77°
2026-04-25 17:43 22.75956 -41.20563 35098 ft 531 kts 77°
2026-04-25 17:44 22.77331 -41.12693 35106 ft 531 kts 77°
2026-04-25 17:44 22.78702 -41.04822 35107 ft 531 kts 77°
2026-04-25 17:45 22.79608 -40.99602 35103 ft 532 kts 77°
2026-04-25 17:45 22.81422 -40.89127 35103 ft 532 kts 77°
2026-04-25 17:46 22.82784 -40.81237 35103 ft 532 kts 77°
2026-04-25 17:46 22.84140 -40.73357 35105 ft 532 kts 77°
2026-04-25 17:47 22.85494 -40.65464 35099 ft 532 kts 77°
2026-04-25 17:47 22.86844 -40.57576 35114 ft 532 kts 77°
2026-04-25 17:48 22.88868 -40.45709 35108 ft 533 kts 77°
2026-04-25 17:49 22.90212 -40.37798 35110 ft 534 kts 77°
2026-04-25 17:49 22.91558 -40.29867 35106 ft 534 kts 77°
2026-04-25 17:50 22.92900 -40.21941 35107 ft 534 kts 77°
2026-04-25 17:50 22.94239 -40.14053 35106 ft 535 kts 77°
2026-04-25 17:51 22.95553 -40.06107 35106 ft 536 kts 79°
2026-04-25 17:51 22.95710 -39.97999 35110 ft 540 kts 95°
2026-04-25 17:52 22.94334 -39.89995 35093 ft 538 kts 106°
2026-04-25 17:52 22.92362 -39.82150 35108 ft 539 kts 107°
2026-04-25 17:53 22.90398 -39.74289 35107 ft 541 kts 106°
2026-04-25 17:53 22.88491 -39.66387 35110 ft 542 kts 105°
2026-04-25 17:54 22.86604 -39.58447 35110 ft 544 kts 105°
2026-04-25 17:54 22.84714 -39.50502 35096 ft 544 kts 105°
2026-04-25 17:55 22.82814 -39.42561 35100 ft 544 kts 105°
2026-04-25 17:55 22.80908 -39.34631 35106 ft 543 kts 105°
2026-04-25 17:56 22.79000 -39.26712 35101 ft 543 kts 105°
2026-04-25 17:56 22.77101 -39.18849 35109 ft 542 kts 105°
2026-04-25 17:57 22.75189 -39.10946 35110 ft 542 kts 105°
2026-04-25 17:57 22.73276 -39.03055 35098 ft 541 kts 105°
2026-04-25 17:58 22.71360 -38.95169 35101 ft 541 kts 105°
2026-04-25 17:58 22.69440 -38.87289 35110 ft 541 kts 105°
2026-04-25 17:59 22.67829 -38.80689 35100 ft 541 kts 105°
2026-04-25 17:59 22.65916 -38.72868 35100 ft 541 kts 105°
2026-04-25 18:00 22.63984 -38.64990 35107 ft 541 kts 105°
2026-04-25 18:00 22.62047 -38.57108 35101 ft 541 kts 105°
2026-04-25 18:01 22.60109 -38.49233 35109 ft 541 kts 106°
2026-04-25 18:01 22.58168 -38.41370 35106 ft 541 kts 106°
2026-04-25 18:02 22.56221 -38.33503 35108 ft 541 kts 106°
2026-04-25 18:02 22.54272 -38.25641 35093 ft 541 kts 106°
2026-04-25 18:03 22.52319 -38.17784 35100 ft 541 kts 106°
2026-04-25 18:03 22.50357 -38.09906 35112 ft 541 kts 106°
2026-04-25 18:04 22.48405 -38.02088 35100 ft 542 kts 106°
2026-04-25 18:04 22.46437 -37.94216 35108 ft 542 kts 106°
2026-04-25 18:05 22.44464 -37.86347 35105 ft 543 kts 106°
2026-04-25 18:05 22.42478 -37.78447 35104 ft 544 kts 106°
2026-04-25 18:06 22.40492 -37.70556 35119 ft 544 kts 106°
2026-04-25 18:06 22.38497 -37.62653 35104 ft 545 kts 106°
2026-04-25 18:07 22.36502 -37.54764 35106 ft 544 kts 106°
2026-04-25 18:07 22.34503 -37.46876 35103 ft 543 kts 106°
2026-04-25 18:08 22.32504 -37.39011 35099 ft 543 kts 106°
2026-04-25 18:08 22.30502 -37.31149 35103 ft 543 kts 106°
2026-04-25 18:09 22.28497 -37.23291 35125 ft 543 kts 106°
2026-04-25 18:09 22.26499 -37.15479 35105 ft 544 kts 106°
2026-04-25 18:10 22.24483 -37.07606 35106 ft 543 kts 106°
2026-04-25 18:10 22.22464 -36.99743 35095 ft 543 kts 106°
2026-04-25 18:11 22.20440 -36.91879 35112 ft 543 kts 106°
2026-04-25 18:11 22.18413 -36.84017 35098 ft 543 kts 106°
2026-04-25 18:12 22.16380 -36.76152 35113 ft 543 kts 106°
2026-04-25 18:12 22.14356 -36.68335 35102 ft 544 kts 106°
2026-04-25 18:13 22.12314 -36.60464 35094 ft 544 kts 106°
2026-04-25 18:13 22.10266 -36.52579 35101 ft 544 kts 106°
2026-04-25 18:14 22.07211 -36.40857 35103 ft 543 kts 106°
2026-04-25 18:14 22.05159 -36.33002 35103 ft 543 kts 106°
2026-04-25 18:15 22.03112 -36.25171 35113 ft 542 kts 106°
2026-04-25 18:15 22.01060 -36.17332 35097 ft 543 kts 106°
2026-04-25 18:16 21.99016 -36.09507 35096 ft 542 kts 106°
2026-04-25 18:17 21.95770 -35.97891 35108 ft 541 kts 111°
2026-04-25 18:17 21.93067 -35.90322 35105 ft 541 kts 113°
2026-04-25 18:18 21.90346 -35.82837 35102 ft 542 kts 112°
2026-04-25 18:18 21.87639 -35.75258 35113 ft 542 kts 112°
2026-04-25 18:19 21.84955 -35.67655 35101 ft 543 kts 112°
2026-04-25 18:19 21.82274 -35.60056 35100 ft 543 kts 112°
2026-04-25 18:20 21.79589 -35.52467 35101 ft 543 kts 112°
2026-04-25 18:20 21.76913 -35.44924 35102 ft 543 kts 112°
2026-04-25 18:21 21.74210 -35.37326 35101 ft 543 kts 112°
2026-04-25 18:21 21.71511 -35.29746 35101 ft 543 kts 112°
2026-04-25 18:22 21.68804 -35.22155 35103 ft 543 kts 112°
2026-04-25 18:22 21.66098 -35.14581 35099 ft 543 kts 112°
2026-04-25 18:23 21.63387 -35.07005 35100 ft 542 kts 112°
2026-04-25 18:23 21.60690 -34.99480 35097 ft 542 kts 112°
2026-04-25 18:24 21.57974 -34.91915 35100 ft 542 kts 112°
2026-04-25 18:24 21.55257 -34.84360 35101 ft 542 kts 112°
2026-04-25 18:25 21.52994 -34.78076 35101 ft 543 kts 112°
2026-04-25 18:25 21.49825 -34.69288 35097 ft 542 kts 112°
2026-04-25 18:26 21.47096 -34.61739 35098 ft 542 kts 112°
2026-04-25 18:26 21.44360 -34.54180 35095 ft 542 kts 112°
2026-04-25 18:27 21.41620 -34.46621 35106 ft 542 kts 112°
2026-04-25 18:27 21.38899 -34.39128 35098 ft 543 kts 112°
2026-04-25 18:28 21.36155 -34.31581 35096 ft 543 kts 112°
2026-04-25 18:28 21.33407 -34.24036 35088 ft 542 kts 112°
2026-04-25 18:29 21.29286 -34.12745 35092 ft 542 kts 112°
2026-04-25 18:30 21.23779 -33.97701 35095 ft 541 kts 112°
2026-04-25 18:30 21.21024 -33.90190 35096 ft 541 kts 112°
2026-04-25 18:31 21.18265 -33.82682 35078 ft 541 kts 113°
2026-04-25 18:31 21.15508 -33.75188 35084 ft 540 kts 113°
2026-04-25 18:32 21.12753 -33.67715 35089 ft 539 kts 113°
2026-04-25 18:32 21.09999 -33.60256 35088 ft 538 kts 113°
2026-04-25 18:33 21.07243 -33.52802 35094 ft 538 kts 113°
2026-04-25 18:33 21.04498 -33.45391 35088 ft 539 kts 113°
2026-04-25 18:34 21.01731 -33.37928 35089 ft 540 kts 113°
2026-04-25 18:34 20.98955 -33.30458 35088 ft 540 kts 113°
2026-04-25 18:35 20.96173 -33.22978 35086 ft 541 kts 113°
2026-04-25 18:35 20.93383 -33.15490 35092 ft 542 kts 113°
2026-04-25 18:36 20.90549 -33.07895 35089 ft 543 kts 113°
2026-04-25 18:36 20.87778 -33.00480 35088 ft 544 kts 113°
2026-04-25 18:37 20.84968 -32.92972 35087 ft 544 kts 113°
2026-04-25 18:37 20.82154 -32.85466 35076 ft 543 kts 113°
2026-04-25 18:38 20.79344 -32.77981 35081 ft 542 kts 113°
2026-04-25 18:38 20.76532 -32.70503 35076 ft 541 kts 113°
2026-04-25 18:39 20.73727 -32.63055 35078 ft 540 kts 113°
2026-04-25 18:39 20.70939 -32.55664 35079 ft 540 kts 113°
2026-04-25 18:40 20.68125 -32.48213 35080 ft 541 kts 113°
2026-04-25 18:40 20.65305 -32.40757 35062 ft 541 kts 113°
2026-04-25 18:41 20.62481 -32.33298 35086 ft 541 kts 113°
2026-04-25 18:41 20.59654 -32.25846 35074 ft 541 kts 113°
2026-04-25 18:42 20.57783 -32.20918 35072 ft 541 kts 113°
2026-04-25 18:42 20.54477 -32.12223 35073 ft 541 kts 113°
2026-04-25 18:43 20.51185 -32.03577 35075 ft 541 kts 113°
2026-04-25 18:43 20.48809 -31.97340 35076 ft 541 kts 114°
2026-04-25 18:44 20.45993 -31.89955 35068 ft 540 kts 114°
2026-04-25 18:44 20.43165 -31.82536 35066 ft 539 kts 113°
2026-04-25 18:45 20.40340 -31.75134 35068 ft 538 kts 114°
2026-04-25 18:45 20.37382 -31.67819 35073 ft 537 kts 117°
2026-04-25 18:46 20.34132 -31.60635 35063 ft 537 kts 118°
2026-04-25 18:46 20.30873 -31.53460 35068 ft 538 kts 117°
2026-04-25 18:47 20.27664 -31.46239 35050 ft 538 kts 117°
2026-04-25 18:47 20.24487 -31.39015 35069 ft 538 kts 117°
2026-04-25 18:48 20.21336 -31.31789 35041 ft 535 kts 112°
2026-04-25 18:48 20.20321 -31.28058 35087 ft 531 kts 101°
2026-04-25 18:48 20.19675 -31.24183 35067 ft 533 kts 99°
2026-04-25 18:49 20.17971 -31.16472 35072 ft 537 kts 109°
2026-04-25 18:49 20.15217 -31.09062 35065 ft 539 kts 116°
2026-04-25 18:50 20.11932 -31.01840 35073 ft 548 kts 118°
2026-04-25 18:50 20.08496 -30.94440 35067 ft 564 kts 117°
2026-04-25 18:51 20.05639 -30.88127 35072 ft 574 kts 117°
2026-04-25 18:51 20.01633 -30.79114 35072 ft 584 kts 116°
2026-04-25 18:52 19.98151 -30.71263 35066 ft 589 kts 116°
2026-04-25 18:52 19.94633 -30.63366 35062 ft 591 kts 117°
2026-04-25 18:53 19.91097 -30.55460 35058 ft 592 kts 117°
2026-04-25 18:53 19.87582 -30.47614 35046 ft 590 kts 117°
2026-04-25 18:54 19.82299 -30.35838 35052 ft 586 kts 117°
2026-04-25 18:55 19.78786 -30.28020 35052 ft 585 kts 117°
2026-04-25 18:55 19.75277 -30.20224 35055 ft 584 kts 117°
2026-04-25 18:56 19.71793 -30.12491 35054 ft 584 kts 117°
2026-04-25 18:56 19.68283 -30.04713 35041 ft 585 kts 117°
2026-04-25 18:57 19.64762 -29.96920 35052 ft 585 kts 117°
2026-04-25 18:57 19.61248 -29.89154 35052 ft 585 kts 117°
2026-04-25 18:58 19.57720 -29.81368 35054 ft 585 kts 117°
2026-04-25 18:58 19.52425 -29.69702 35048 ft 585 kts 117°
2026-04-25 18:59 19.45355 -29.54163 35041 ft 584 kts 117°
2026-04-25 19:00 19.40067 -29.42570 35049 ft 582 kts 117°
2026-04-25 19:01 19.34778 -29.30997 35047 ft 582 kts 117°
2026-04-25 19:01 19.31245 -29.23279 35046 ft 582 kts 117°
2026-04-25 19:02 19.25958 -29.11751 35047 ft 583 kts 117°
2026-04-25 19:03 19.21817 -29.02736 35037 ft 581 kts 117°
2026-04-25 19:03 19.17109 -28.92504 35046 ft 581 kts 117°
2026-04-25 19:04 19.11795 -28.80978 35038 ft 581 kts 117°
2026-04-25 19:05 19.04710 -28.65645 35039 ft 581 kts 117°
2026-04-25 19:06 19.01181 -28.58023 35034 ft 582 kts 117°
2026-04-25 19:06 18.95810 -28.46441 35033 ft 583 kts 117°
2026-04-25 19:07 18.90451 -28.34910 35032 ft 583 kts 117°
2026-04-25 19:08 18.85107 -28.23431 35033 ft 583 kts 117°
2026-04-25 19:09 18.78527 -28.09328 35031 ft 581 kts 117°
2026-04-25 19:10 18.72606 -27.96669 35034 ft 579 kts 118°
2026-04-25 19:10 18.69045 -27.89066 35028 ft 578 kts 118°
2026-04-25 19:11 18.65477 -27.81460 35032 ft 578 kts 118°
2026-04-25 19:11 18.61898 -27.73839 35032 ft 579 kts 118°
2026-04-25 19:12 18.58347 -27.66288 35023 ft 578 kts 118°
2026-04-25 19:12 18.54772 -27.58695 35027 ft 577 kts 118°
2026-04-25 19:13 18.51203 -27.51124 35026 ft 576 kts 118°
2026-04-25 19:13 18.47633 -27.43561 35026 ft 576 kts 118°
2026-04-25 19:14 18.44066 -27.36015 35021 ft 576 kts 118°
2026-04-25 19:14 18.40491 -27.28460 35022 ft 576 kts 118°
2026-04-25 19:15 18.36911 -27.20903 35023 ft 577 kts 118°
2026-04-25 19:15 18.33348 -27.13392 35022 ft 575 kts 118°
2026-04-25 19:16 18.29775 -27.05869 35022 ft 574 kts 118°
2026-04-25 19:16 18.26205 -26.98362 35018 ft 573 kts 118°
2026-04-25 19:17 18.22641 -26.90878 35019 ft 572 kts 118°
2026-04-25 19:17 18.19065 -26.83374 35020 ft 573 kts 118°
2026-04-25 19:18 18.15491 -26.75886 35017 ft 573 kts 118°
2026-04-25 19:18 18.11932 -26.68438 35015 ft 573 kts 118°
2026-04-25 19:19 18.08371 -26.60993 35016 ft 571 kts 118°
2026-04-25 19:19 18.04800 -26.53536 35016 ft 571 kts 118°
2026-04-25 19:20 18.01223 -26.46075 35016 ft 570 kts 118°
2026-04-25 19:20 17.97655 -26.38641 35011 ft 570 kts 118°
2026-04-25 19:21 17.94104 -26.31249 35009 ft 570 kts 118°
2026-04-25 19:21 17.88740 -26.20095 35003 ft 570 kts 118°
2026-04-25 19:22 17.85172 -26.12678 35007 ft 568 kts 118°
2026-04-25 19:23 17.79833 -26.01587 35005 ft 567 kts 118°
2026-04-25 19:23 17.74202 -25.90702 35002 ft 566 kts 121°
2026-04-25 19:24 17.70354 -25.83481 35003 ft 566 kts 121°
2026-04-25 19:25 17.62795 -25.69043 35005 ft 566 kts 120°
2026-04-25 19:25 17.59022 -25.61807 34999 ft 565 kts 120°
2026-04-25 19:26 17.55245 -25.54582 34997 ft 565 kts 121°
2026-04-25 19:26 17.51463 -25.47361 34997 ft 565 kts 121°
2026-04-25 19:27 17.48934 -25.42537 35000 ft 564 kts 121°
2026-04-25 19:27 17.43896 -25.32939 35000 ft 564 kts 121°
2026-04-25 19:28 17.40749 -25.26949 35001 ft 564 kts 121°
2026-04-25 19:28 17.36964 -25.19751 35005 ft 564 kts 121°
2026-04-25 19:29 17.33176 -25.12557 35007 ft 563 kts 121°
2026-04-25 19:29 17.29394 -25.05381 34999 ft 563 kts 121°
2026-04-25 19:30 17.25607 -24.98204 34989 ft 563 kts 121°
2026-04-25 19:30 17.21819 -24.91033 34989 ft 563 kts 121°
2026-04-25 19:31 17.18052 -24.83909 34984 ft 563 kts 121°
2026-04-25 19:31 17.14258 -24.76742 34992 ft 562 kts 121°
2026-04-25 19:32 17.10471 -24.69595 34992 ft 562 kts 121°
2026-04-25 19:32 17.07317 -24.63649 34976 ft 561 kts 121°
2026-04-25 19:33 17.02889 -24.55311 34985 ft 561 kts 121°
2026-04-25 19:33 16.99104 -24.48191 34965 ft 560 kts 121°
2026-04-25 19:34 16.95318 -24.41076 34951 ft 560 kts 121°
2026-04-25 19:34 16.91527 -24.33961 34974 ft 561 kts 121°
2026-04-25 19:35 16.87734 -24.26848 34959 ft 560 kts 121°
2026-04-25 19:35 16.83965 -24.19788 34973 ft 559 kts 121°
2026-04-25 19:36 16.80172 -24.12690 34974 ft 559 kts 121°
2026-04-25 19:36 16.76383 -24.05607 34979 ft 559 kts 121°
2026-04-25 19:37 16.72590 -23.98524 34976 ft 559 kts 121°
2026-04-25 19:37 16.68790 -23.91434 34976 ft 559 kts 121°
2026-04-25 19:38 16.65019 -23.84406 34973 ft 559 kts 121°
2026-04-25 19:38 16.61224 -23.77341 34973 ft 559 kts 121°
2026-04-25 19:39 16.57417 -23.70261 34967 ft 559 kts 122°
2026-04-25 19:39 16.53609 -23.63185 34962 ft 559 kts 122°
2026-04-25 19:40 16.49805 -23.56124 34964 ft 559 kts 122°
2026-04-25 19:40 16.46011 -23.49088 34952 ft 559 kts 122°
2026-04-25 19:41 16.42194 -23.42016 34944 ft 559 kts 122°
2026-04-25 19:41 16.39030 -23.36160 34959 ft 559 kts 122°
2026-04-25 19:42 16.34569 -23.27909 34950 ft 558 kts 122°
2026-04-25 19:42 16.30758 -23.20867 34956 ft 557 kts 122°
2026-04-25 19:43 16.26953 -23.13841 34953 ft 557 kts 122°
2026-04-25 19:43 16.23151 -23.06825 34958 ft 557 kts 122°
2026-04-25 19:44 16.19368 -22.99846 34958 ft 557 kts 122°
2026-04-25 19:44 16.15559 -22.92809 34944 ft 557 kts 122°
2026-04-25 19:45 16.11751 -22.85793 34943 ft 558 kts 122°
2026-04-25 19:45 16.07979 -22.78752 34930 ft 557 kts 121°
2026-04-25 19:46 16.04239 -22.71706 34943 ft 556 kts 121°
2026-04-25 19:46 16.00503 -22.64666 34947 ft 555 kts 121°
2026-04-25 19:47 15.96766 -22.57641 34950 ft 555 kts 121°
2026-04-25 19:47 15.93029 -22.50629 34955 ft 555 kts 121°
2026-04-25 19:48 15.89285 -22.43611 34956 ft 555 kts 121°
2026-04-25 19:48 15.85566 -22.36646 34954 ft 555 kts 121°
2026-04-25 19:49 15.83056 -22.31948 34939 ft 555 kts 121°
2026-04-25 19:49 15.78071 -22.22628 34949 ft 554 kts 121°
2026-04-25 19:50 15.72448 -22.12131 34948 ft 554 kts 121°
2026-04-25 19:51 15.68699 -22.05139 34947 ft 554 kts 121°
2026-04-25 19:51 15.64949 -21.98153 34948 ft 554 kts 121°
2026-04-25 19:52 15.61196 -21.91167 34939 ft 554 kts 121°
2026-04-25 19:52 15.57435 -21.84174 34936 ft 554 kts 121°
2026-04-25 19:53 15.53677 -21.77193 34937 ft 554 kts 121°
2026-04-25 19:53 15.49941 -21.70259 34941 ft 554 kts 121°
2026-04-25 19:54 15.46187 -21.63299 34937 ft 553 kts 121°
2026-04-25 19:54 15.42427 -21.56333 34938 ft 553 kts 121°
2026-04-25 19:55 15.38664 -21.49368 34933 ft 553 kts 121°
2026-04-25 19:55 15.34899 -21.42407 34934 ft 554 kts 121°
2026-04-25 19:56 15.31149 -21.35479 34931 ft 554 kts 121°
2026-04-25 19:56 15.27378 -21.28520 34930 ft 553 kts 121°
2026-04-25 19:57 15.23615 -21.21579 34933 ft 552 kts 121°
2026-04-25 19:57 15.19848 -21.14639 34933 ft 552 kts 121°
2026-04-25 19:58 15.16083 -21.07709 34928 ft 551 kts 121°
2026-04-25 19:58 15.12322 -21.00794 34929 ft 551 kts 121°
2026-04-25 19:59 15.08557 -20.93876 34929 ft 551 kts 121°
2026-04-25 19:59 15.04793 -20.86967 34927 ft 551 kts 121°
2026-04-25 20:00 15.01026 -20.80056 34927 ft 551 kts 121°
2026-04-25 20:00 14.97278 -20.73185 34933 ft 550 kts 121°
2026-04-25 20:01 14.91636 -20.62857 34923 ft 549 kts 121°
2026-04-25 20:01 14.87879 -20.55984 34923 ft 549 kts 121°
2026-04-25 20:02 14.84116 -20.49105 34926 ft 549 kts 121°
2026-04-25 20:02 14.80359 -20.42240 34923 ft 549 kts 121°
2026-04-25 20:03 14.76606 -20.35383 34920 ft 548 kts 121°
2026-04-25 20:03 14.72856 -20.28521 34918 ft 549 kts 121°
2026-04-25 20:04 14.69182 -20.21618 34904 ft 548 kts 117°
2026-04-25 20:04 14.66461 -20.14313 34920 ft 547 kts 109°
2026-04-25 20:05 14.64136 -20.06884 34903 ft 536 kts 109°
2026-04-25 20:05 14.61842 -19.99598 34911 ft 532 kts 109°
2026-04-25 20:06 14.59521 -19.92335 34917 ft 533 kts 109°
2026-04-25 20:06 14.57183 -19.85060 34914 ft 534 kts 109°
2026-04-25 20:07 14.54842 -19.77786 34913 ft 534 kts 109°
2026-04-25 20:07 14.52515 -19.70560 34910 ft 534 kts 109°
2026-04-25 20:08 14.50171 -19.63285 34907 ft 534 kts 109°
2026-04-25 20:08 14.47822 -19.56004 34908 ft 533 kts 109°
2026-04-25 20:09 14.45475 -19.48738 34904 ft 533 kts 109°
2026-04-25 20:09 14.43131 -19.41490 34904 ft 532 kts 109°
2026-04-25 20:10 14.40800 -19.34287 34910 ft 531 kts 109°
2026-04-25 20:10 14.38475 -19.27116 34897 ft 530 kts 109°
2026-04-25 20:11 14.36135 -19.19909 34899 ft 530 kts 109°
2026-04-25 20:11 14.33795 -19.12705 34898 ft 529 kts 109°
2026-04-25 20:12 14.31451 -19.05498 34901 ft 529 kts 109°
2026-04-25 20:12 14.29912 -19.00768 34883 ft 514 kts 109°
2026-04-25 20:13 14.28073 -18.95129 34864 ft 485 kts 109°
2026-04-25 20:13 14.27005 -18.91864 34872 ft 479 kts 109°
2026-04-25 20:13 14.25925 -18.88566 34888 ft 490 kts 109°
2026-04-25 20:13 14.24824 -18.85196 34896 ft 501 kts 109°
2026-04-25 20:14 14.23707 -18.81770 34742 ft 506 kts 109°
2026-04-25 20:14 14.22589 -18.78340 34350 ft 502 kts 109°
2026-04-25 20:14 14.21478 -18.74934 33545 ft 503 kts 109°
2026-04-25 20:14 14.20352 -18.71485 32232 ft 514 kts 108°
2026-04-25 20:15 14.19592 -18.69156 31419 ft 521 kts 108°
2026-04-25 20:15 14.18434 -18.65603 30464 ft 523 kts 108°
2026-04-25 20:15 14.17280 -18.62066 29827 ft 517 kts 108°
2026-04-25 20:15 14.16144 -18.58596 29465 ft 504 kts 108°
2026-04-25 20:16 14.15033 -18.55212 29117 ft 492 kts 108°
2026-04-25 20:16 14.13944 -18.51901 28759 ft 482 kts 108°
2026-04-25 20:16 14.12876 -18.48654 28300 ft 475 kts 108°
2026-04-25 20:16 14.11823 -18.45451 27736 ft 471 kts 108°
2026-04-25 20:17 14.10776 -18.42264 27149 ft 467 kts 108°
2026-04-25 20:17 14.09739 -18.39102 26620 ft 464 kts 108°
2026-04-25 20:17 14.08712 -18.35974 26118 ft 459 kts 108°
2026-04-25 20:17 14.07698 -18.32884 25715 ft 453 kts 108°
2026-04-25 20:18 14.06692 -18.29824 25315 ft 448 kts 109°
2026-04-25 20:18 14.05694 -18.26789 24928 ft 446 kts 108°
2026-04-25 20:18 14.04699 -18.23764 24550 ft 446 kts 109°
2026-04-25 20:18 14.03705 -18.20738 24182 ft 446 kts 109°
2026-04-25 20:19 14.02713 -18.17715 23815 ft 444 kts 109°
2026-04-25 20:19 14.01730 -18.14719 23440 ft 437 kts 109°
2026-04-25 20:19 14.00766 -18.11777 22992 ft 432 kts 109°
2026-04-25 20:19 13.99807 -18.08862 22556 ft 426 kts 109°
2026-04-25 20:20 13.98855 -18.05987 22132 ft 423 kts 109°
2026-04-25 20:20 13.98023 -18.03127 21649 ft 411 kts 99°
2026-04-25 20:20 13.98047 -18.00206 21212 ft 408 kts 79°
2026-04-25 20:20 13.98891 -17.97440 20891 ft 404 kts 64°
2026-04-25 20:21 14.00342 -17.95035 20539 ft 399 kts 52°
2026-04-25 20:21 14.02003 -17.92753 20241 ft 395 kts 52°
2026-04-25 20:21 14.03669 -17.90508 19913 ft 394 kts 51°
2026-04-25 20:21 14.05340 -17.88269 19546 ft 395 kts 51°
2026-04-25 20:22 14.07015 -17.86017 19158 ft 397 kts 51°
2026-04-25 20:22 14.08146 -17.84491 18882 ft 398 kts 52°
2026-04-25 20:22 14.10369 -17.81475 18275 ft 399 kts 52°
2026-04-25 20:22 14.12044 -17.79193 17759 ft 398 kts 52°
2026-04-25 20:23 14.13701 -17.76928 17226 ft 395 kts 52°
2026-04-25 20:23 14.15352 -17.74669 16713 ft 393 kts 52°
2026-04-25 20:23 14.16991 -17.72425 16186 ft 391 kts 52°
2026-04-25 20:23 14.18610 -17.70206 15953 ft 383 kts 52°
2026-04-25 20:24 14.20200 -17.68026 15861 ft 379 kts 52°
2026-04-25 20:24 14.21781 -17.65856 15866 ft 377 kts 53°
2026-04-25 20:24 14.23354 -17.63698 15855 ft 377 kts 52°
2026-04-25 20:24 14.24932 -17.61534 15854 ft 378 kts 52°
2026-04-25 20:25 14.26511 -17.59370 15862 ft 378 kts 52°
2026-04-25 20:25 14.28092 -17.57202 15856 ft 378 kts 52°
2026-04-25 20:25 14.29672 -17.55036 15857 ft 378 kts 52°
2026-04-25 20:25 14.31254 -17.52865 15860 ft 379 kts 52°
2026-04-25 20:26 14.32818 -17.50720 15858 ft 378 kts 52°
2026-04-25 20:26 14.34400 -17.48549 15862 ft 378 kts 52°
2026-04-25 20:26 14.35983 -17.46376 15852 ft 378 kts 52°
2026-04-25 20:26 14.37563 -17.44209 15851 ft 378 kts 53°
2026-04-25 20:27 14.38909 -17.41888 15863 ft 378 kts 67°
2026-04-25 20:27 14.39610 -17.39280 15863 ft 379 kts 84°
2026-04-25 20:27 14.39599 -17.36567 15858 ft 379 kts 100°
2026-04-25 20:27 14.38885 -17.33963 15853 ft 376 kts 116°
2026-04-25 20:28 14.37561 -17.31661 15842 ft 370 kts 129°
2026-04-25 20:28 14.35957 -17.29587 15849 ft 370 kts 133°
2026-04-25 20:28 14.34308 -17.27594 15850 ft 372 kts 134°
2026-04-25 20:28 14.32606 -17.25572 15850 ft 373 kts 134°
2026-04-25 20:29 14.30783 -17.23682 15862 ft 371 kts 146°
2026-04-25 20:29 14.28577 -17.22348 15865 ft 366 kts 162°
2026-04-25 20:29 14.26128 -17.21691 15856 ft 362 kts 178°
2026-04-25 20:29 14.23645 -17.21708 15846 ft 356 kts 190°
2026-04-25 20:30 14.21190 -17.22069 15848 ft 355 kts 192°
2026-04-25 20:30 14.18765 -17.22522 15841 ft 354 kts 194°
2026-04-25 20:30 14.16379 -17.22986 15792 ft 343 kts 194°
2026-04-25 20:30 14.14069 -17.23433 15691 ft 331 kts 194°
2026-04-25 20:31 14.11834 -17.23861 15528 ft 322 kts 195°
2026-04-25 20:31 14.09674 -17.24275 15349 ft 307 kts 194°
2026-04-25 20:31 14.07640 -17.24669 15148 ft 289 kts 194°
2026-04-25 20:31 14.05706 -17.25031 14839 ft 277 kts 194°
2026-04-25 20:32 14.03833 -17.25379 14451 ft 269 kts 194°
2026-04-25 20:32 14.02018 -17.25702 14056 ft 262 kts 194°
2026-04-25 20:32 14.00224 -17.26035 13514 ft 261 kts 194°
2026-04-25 20:32 13.98475 -17.26372 13081 ft 255 kts 194°
2026-04-25 20:33 13.96729 -17.26725 12500 ft 256 kts 194°
2026-04-25 20:33 13.95082 -17.27331 11938 ft 252 kts 218°
2026-04-25 20:33 13.93827 -17.28555 11431 ft 249 kts 228°
2026-04-25 20:33 13.93064 -17.29428 11236 ft 244 kts 229°
2026-04-25 20:34 13.91532 -17.31222 11059 ft 258 kts 229°
2026-04-25 20:34 13.90333 -17.32630 10906 ft 262 kts 229°
2026-04-25 20:34 13.89041 -17.33908 10837 ft 256 kts 211°
2026-04-25 20:34 13.87365 -17.34474 10864 ft 256 kts 184°
2026-04-25 20:35 13.85619 -17.34159 10837 ft 259 kts 156°
2026-04-25 20:35 13.84199 -17.33023 10862 ft 263 kts 131°
2026-04-25 20:35 13.83396 -17.31326 10877 ft 267 kts 109°
2026-04-25 20:35 13.82945 -17.29452 10864 ft 271 kts 106°
2026-04-25 20:36 13.82567 -17.27555 10860 ft 270 kts 104°
2026-04-25 20:36 13.82243 -17.25681 10831 ft 269 kts 97°
2026-04-25 20:36 13.82319 -17.23761 10867 ft 269 kts 86°
2026-04-25 20:36 13.82569 -17.21850 10823 ft 269 kts 85°
2026-04-25 20:37 13.82849 -17.19945 10544 ft 269 kts 85°
2026-04-25 20:37 13.83145 -17.18046 10265 ft 265 kts 83°
2026-04-25 20:37 13.83722 -17.16263 9818 ft 265 kts 57°
2026-04-25 20:37 13.85151 -17.15081 9391 ft 268 kts 21°
2026-04-25 20:38 13.86939 -17.14765 9116 ft 262 kts
2026-04-25 20:38 13.88749 -17.14523 8783 ft 262 kts 10°
2026-04-25 20:38 13.90545 -17.14235 8504 ft 260 kts 10°
2026-04-25 20:38 13.92325 -17.13948 8230 ft 258 kts 10°
2026-04-25 20:39 13.94110 -17.13663 7806 ft 262 kts 10°
2026-04-25 20:39 13.95915 -17.13380 7480 ft 263 kts
2026-04-25 20:39 13.97731 -17.13098 7144 ft 263 kts
2026-04-25 20:39 13.98933 -17.12912 6919 ft 264 kts
2026-04-25 20:40 14.01353 -17.12538 6560 ft 262 kts
2026-04-25 20:40 14.03141 -17.12262 6282 ft 260 kts
2026-04-25 20:40 14.04933 -17.11987 5933 ft 261 kts
2026-04-25 20:40 14.06737 -17.11710 5547 ft 263 kts
2026-04-25 20:41 14.08526 -17.11437 5300 ft 259 kts
2026-04-25 20:41 14.10305 -17.11164 5003 ft 258 kts
2026-04-25 20:41 14.12044 -17.10898 4922 ft 248 kts
2026-04-25 20:41 14.13704 -17.10643 4844 ft 240 kts
2026-04-25 20:42 14.15333 -17.10393 4888 ft 228 kts
2026-04-25 20:42 14.16920 -17.10148 4935 ft 234 kts
2026-04-25 20:42 14.18533 -17.09902 4983 ft 241 kts
2026-04-25 20:42 14.20201 -17.09648 4994 ft 242 kts
2026-04-25 20:43 14.21861 -17.09395 4987 ft 240 kts
2026-04-25 20:43 14.23512 -17.09144 4986 ft 241 kts
2026-04-25 20:43 14.25170 -17.08891 4993 ft 241 kts
2026-04-25 20:43 14.26812 -17.08642 4995 ft 239 kts
2026-04-25 20:44 14.28464 -17.08393 4992 ft 238 kts
2026-04-25 20:44 14.30109 -17.08144 4991 ft 241 kts
2026-04-25 20:44 14.31781 -17.07889 4998 ft 242 kts
2026-04-25 20:44 14.33449 -17.07633 4994 ft 243 kts
2026-04-25 20:45 14.34554 -17.07462 4996 ft 243 kts
2026-04-25 20:45 14.36782 -17.07155 4984 ft 239 kts
2026-04-25 20:45 14.38447 -17.07107 4998 ft 240 kts
2026-04-25 20:45 14.40125 -17.07116 4944 ft 244 kts
2026-04-25 20:46 14.41845 -17.07131 4648 ft 249 kts
2026-04-25 20:46 14.43579 -17.07144 4330 ft 249 kts
2026-04-25 20:46 14.45229 -17.07155 4005 ft 230 kts
2026-04-25 20:46 14.46780 -17.07163 3727 ft 216 kts
2026-04-25 20:47 14.48235 -17.07172 3447 ft 203 kts
2026-04-25 20:47 14.49614 -17.07181 3278 ft 198 kts
2026-04-25 20:47 14.50998 -17.07191 2998 ft 200 kts
2026-04-25 20:47 14.52397 -17.07198 2735 ft 201 kts
2026-04-25 20:48 14.53786 -17.07206 2480 ft 195 kts
2026-04-25 20:48 14.55120 -17.07213 2225 ft 193 kts
2026-04-25 20:48 14.56481 -17.07221 1980 ft 195 kts
2026-04-25 20:48 14.57786 -17.07230 1730 ft 180 kts
2026-04-25 20:49 14.58982 -17.07236 1522 ft 161 kts
2026-04-25 20:49 14.60034 -17.07241 1313 ft 141 kts
2026-04-25 20:49 14.60948 -17.07243 1133 ft 127 kts
2026-04-25 20:49 14.61848 -17.07233 1024 ft 134 kts
2026-04-25 20:50 14.62794 -17.07249 876 ft 137 kts
2026-04-25 20:50 14.63731 -17.07262 693 ft 133 kts
2026-04-25 20:50 14.64670 -17.07265 522 ft 137 kts
2026-04-25 20:50 14.65627 -17.07267 313 ft 136 kts
2026-04-25 20:51 14.66499 -17.07276 270 ft 112 kts 359°
2026-04-25 20:51 14.67152 -17.07282 273 ft 76 kts 359°
2026-04-25 20:51 14.67518 -17.07285 267 ft 36 kts
2026-04-25 20:51 14.67746 -17.07222 268 ft 27 kts 27°
2026-04-25 20:52 14.67829 -17.07174 267 ft 4 kts 34°
2026-04-25 20:52 14.67844 -17.07124 268 ft 12 kts 112°
2026-04-25 20:52 14.67765 -17.07099 270 ft 15 kts 179°
2026-04-25 20:53 14.67627 -17.07096 271 ft 24 kts 179°
2026-04-25 20:53 14.67541 -17.07064 272 ft 12 kts 111°
2026-04-25 20:53 14.67536 -17.06981 276 ft 12 kts 92°
2026-04-25 20:53 14.67535 -17.06897 276 ft 12 kts 89°
2026-04-25 20:54 14.67531 -17.06823 276 ft 8 kts 115°
2026-04-25 20:54 14.67479 -17.06805 276 ft 9 kts 176°
2026-04-25 20:54 14.67444 -17.06804 276 ft 5 kts 179°
2026-04-25 20:54 14.67438 -17.06804 276 ft 0 kts 179°